Dewpoint
43 42 39 38 39 39 38 37 37 37 35 35 34 36 35 36 35 31 29 32 27 21 22 24 26 23 22 21 17 17 10 13 16 10 11 9 8 7 7 5 9 7 5 3 5 3 -0 10 7 4 11 12 11 13
43 40 39 38 38 38 37 36 37 36 35 35 35 34 34 33 35 33 28 33 34 25 19 27 28 28 26 24 23 21 17 18 20 11 10 11 8 7 7 4 10 5 8 5 7 5 4 6 5 11 12 13 11 13
41 40 38 38 39 38 36 36 36 35 35 34 34 34 34 33 35 34 31 32 27 23 17 17 18 22 24 26 28 14 15 18 22 21 17 13 10 11 6 7 8 5 11 8 3 2 5 3 5 7 12 11 12 13
39 38 38 39 38 37 36 36 36 36 34 34 34 34 32 33 36 33 30 32 28 22 10 13 22 20 23 20 23 25 22 24 23 21 18 14 12 13 11 10 7 8 10 5 5 4 6 3 6 10 12 13 11 14
39 39 39 39 38 36 35 36 35 34 34 35 34 32 32 34 34 33 32 33 30 20 12 16 18 18 20 20 14 12 15 19 18 15 15 12 15 16 14 9 6 11 8 5 2 7 10 8 8 10 12 11 13 14
39 39 38 38 37 36 36 35 34 34 36 33 32 32 34 34 33 27 23 28 33 27 17 3 17 16 17 17 9 13 14 15 15 13 12 18 21 14 7 5 11 9 12 14 9 13 12 10 9 8 11 12 14 15
39 38 38 38 36 36 35 34 34 35 33 33 32 34 35 33 28 23 24 31 32 25 18 7 8 14 17 16 9 15 15 17 14 16 13 9 8 7 4 2 8 9 10 10 14 12 5 6 9 9 11 14 12 12
40 38 38 36 36 35 34 35 35 33 33 32 33 34 32 31 28 26 31 30 26 21 15 10 8 9 16 10 11 16 13 17 18 19 13 7 7 4 3 8 9 9 10 7 8 10 9 8 8 9 10 11 12 10
38 37 36 35 34 34 35 33 33 32 32 33 35 31 26 27 23 26 31 24 21 17 12 10 10 7 15 10 14 13 13 11 14 12 11 5 5 4 9 9 9 10 10 9 10 7 6 7 7 9 11 11 11 11
37 36 35 34 34 33 32 33 30 32 31 31 23 17 16 25 28 26 13 12 10 11 12 13 14 8 12 11 9 10 8 9 9 14 10 6 7 13 10 10 11 11 12 11 8 5 7 7 8 10 11 12 13 13
36 35 34 34 33 32 32 32 30 31 29 23 19 16 24 19 15 4 2 2 2 8 11 12 12 11 12 10 11 10 8 7 8 11 9 6 5 8 9 9 11 12 12 12 12 11 11 11 11 11 11 12 13 13
35 34 34 32 32 32 31 31 30 28 27 26 23 17 12 3 -3 -7 -4 0 4 7 10 12 12 13 12 15 11 6 8 6 6 10 2 2 8 9 9 9 11 11 11 11 12 12 12 12 13 13 12 12 13 14
34 34 32 32 33 31 31 30 32 32 25 15 10 2 1 2 -11 -13 -14 -3 3 11 13 12 9 9 9 9 5 6 6 6 6 3 4 5 8 8 9 9 9 10 10 10 10 11 11 12 12 12 11 12 13 13
34 32 32 32 32 31 30 31 30 23 13 6 -3 -7 -3 -2 5 6 9 11 12 14 12 10 8 7 7 7 4 6 5 1 -1 -1 2 6 8 9 9 9 9 9 10 10 10 10 10 10 11 11 12 13 13 13
33 33 33 33 31 30 31 30 27 21 14 6 3 -0 7 10 9 8 8 11 13 11 10 8 5 4 5 6 4 3 0 -0 2 3 6 8 9 8 8 8 8 9 9 9 10 10 10 10 10 10 11 12 12 13
32 33 32 33 30 30 30 25 19 18 13 11 9 8 8 10 11 10 10 12 10 10 8 4 5 3 5 4 4 2 1 1 3 6 8 10 9 7 7 8 8 9 10 10 9 10 10 10 10 10 10 11 12 13
32 31 32 32 30 26 24 19 15 11 11 11 11 13 13 12 10 11 10 12 7 9 7 4 4 3 4 4 4 5 4 5 8 8 9 10 9 7 6 8 9 10 10 8 8 9 10 10 10 9 9 11 11 12
31 32 31 30 26 21 16 12 10 10 9 10 12 13 14 13 13 13 12 11 11 9 7 7 4 5 4 4 5 8 9 9 10 10 8 9 8 6 7 8 9 10 9 8 8 10 10 9 9 9 10 11 10 11
30 29 29 27 23 16 12 12 10 8 10 9 9 10 11 13 14 14 13 12 11 12 8 6 5 4 5 9 10 10 10 10 8 8 8 7 8 7 8 9 9 9 9 8 8 11 9 9 10 10 10 10 10 10
30 28 27 23 20 11 9 10 7 10 10 10 8 10 9 11 12 13 13 14 12 8 7 6 5 4 7 11 12 11 11 11 9 6 7 9 10 8 8 9 8 8 7 7 7 11 8 8 9 9 10 10 9 9
27 26 23 17 9 7 6 7 7 7 8 10 5 6 8 6 9 8 8 9 7 6 6 4 4 6 10 12 12 12 11 10 8 7 8 9 9 7 8 8 8 6 7 7 7 7 8 8 10 10 9 9 9 7
25 22 16 13 12 8 4 0 6 4 6 6 3 2 6 7 7 5 4 4 5 6 4 6 8 10 11 12 12 12 13 11 10 8 9 9 6 7 7 8 8 6 6 7 8 8 8 9 13 9 8 9 7 6
20 16 9 6 5 5 2 -2 4 2 2 3 1 4 5 5 3 1 5 3 5 3 4 6 9 12 13 14 14 14 14 10 8 8 7 7 7 7 7 7 8 7 6 6 8 8 8 10 10 9 7 7 5 5
11 7 6 5 4 4 1 4 0 3 2 2 2 0 2 2 -2 3 5 5 5 5 8 9 11 12 13 13 12 13 13 12 9 8 8 8 7 6 6 6 6 8 8 7 7 7 7 8 9 7 6 6 6 4
9 6 4 5 1 5 4 3 2 3 2 1 3 3 3 -4 4 4 4 5 4 6 8 8 9 10 10 9 12 13 13 11 9 8 7 8 7 6 5 5 5 6 8 6 5 6 6 7 7 7 6 7 8 4
7 6 4 4 5 4 4 2 2 3 4 4 3 -0 -3 3 4 3 3 4 5 5 7 8 8 9 9 10 11 11 12 10 8 8 7 8 8 6 5 5 5 5 7 7 7 5 6 6 7 7 5 5 7 3
7 9 6 6 6 5 5 5 4 4 4 4 3 4 4 4 2 2 3 4 7 7 7 7 8 9 9 10 11 11 9 8 9 9 8 8 9 7 6 5 5 6 8 8 7 7 7 7 8 7 6 5 4 3
10 7 7 6 7 4 6 5 5 6 5 2 4 5 4 3 3 3 5 5 5 5 6 6 6 7 9 9 9 9 9 8 7 7 7 6 6 6 6 6 6 9 11 8 10 10 10 9 9 7 5 5 4 3
10 7 7 8 5 5 6 6 6 5 6 4 7 8 7 5 4 5 5 5 1 5 7 7 6 3 5 6 6 6 6 7 7 7 7 7 6 5 4 4 3 3 4 4 9 12 13 10 8 7 5 4 3 2
8 5 7 4 8 7 6 4 5 2 4 5 5 6 7 7 6 2 3 3 5 5 4 3 2 4 6 6 6 7 7 7 7 7 6 6 5 4 3 3 4 4 3 3 4 4 9 5 5 2 3 3 4 4
1 4 6 4 6 3 -1 -5 -6 -2 -1 -0 -2 2 4 3 1 1 3 2 1 -0 3 4 3 2 4 5 5 6 7 6 6 6 6 6 5 5 5 5 4 4 3 3 3 3 3 3 2 2 3 3 3 4
2 5 6 7 6 -2 -7 -3 -3 -1 -4 -3 -1 -6 -2 0 2 1 -0 0 2 3 5 4 4 5 5 4 6 7 10 8 7 6 6 6 6 6 5 7 8 6 4 4 3 2 2 3 3 3 3 2 2 3
-5 -4 -5 -0 3 4 -2 -2 -1 -1 -3 -2 -2 -4 -4 -2 0 -1 -4 -2 2 3 3 3 3 4 5 6 6 6 8 6 6 10 12 14 15 14 13 13 11 7 6 5 3 2 3 3 3 3 2 2 2 3
Wind_Speed
24 19 16 13 10 8 7 7 7 6 8 8 9 10 11 7 5 3 1 5 3 2 4 1 1 1 1 1 2 6 4 5 5 9 5 3 2 3 3 4 6 5 7 6 6 4 3 19 14 8 10 21 22 22
24 21 16 14 10 9 7 6 6 6 7 7 8 8 9 10 8 3 2 3 3 2 2 2 3 3 4 4 2 1 1 2 2 3 2 1 4 2 2 4 7 4 5 5 3 6 13 17 15 9 19 21 22 27
23 20 17 14 12 10 7 6 5 5 5 6 6 8 9 9 6 5 2 4 4 3 1 2 2 4 4 1 3 2 2 3 3 3 2 2 5 3 3 1 3 10 10 3 13 2 18 23 12 22 22 24 26 27
23 19 17 14 13 9 7 5 4 4 5 5 7 9 9 7 9 6 4 2 5 4 2 1 3 3 3 5 1 3 5 1 2 2 3 3 4 1 2 4 4 4 10 12 11 11 26 4 24 25 27 24 27 27
21 18 16 14 12 9 6 5 4 3 4 6 9 10 7 4 13 11 5 4 5 3 1 4 5 3 4 7 8 8 3 4 3 2 2 2 1 3 4 4 3 5 6 6 8 22 13 24 26 25 23 27 27 27
20 17 16 14 11 8 6 5 3 4 6 8 9 8 6 9 13 4 2 4 6 2 2 1 3 4 8 12 14 10 5 3 2 2 1 1 3 4 4 3 2 15 11 10 11 19 18 28 21 20 25 27 26 26
19 17 15 14 11 8 6 4 3 6 7 7 6 8 11 9 7 5 3 5 3 2 3 2 3 5 8 4 6 6 4 2 2 2 2 3 6 4 3 6 16 17 17 18 10 19 14 10 22 26 23 24 25 23
18 17 17 14 11 9 6 4 5 6 6 4 9 15 16 14 8 6 10 7 4 7 5 3 5 5 9 6 6 6 6 3 5 2 3 3 3 4 3 12 18 16 17 12 17 16 17 20 21 21 21 22 23 23
19 18 15 14 11 8 6 5 6 7 5 6 13 8 4 6 3 2 3 6 11 6 4 4 6 6 9 5 4 6 5 4 6 3 3 3 3 6 6 17 18 18 15 19 20 17 16 18 20 22 23 23 22 25
20 18 15 13 11 8 6 6 8 6 8 9 4 2 2 2 7 3 6 3 7 8 7 4 2 5 6 4 4 8 4 3 2 4 2 4 3 4 7 13 13 16 17 18 21 24 24 22 22 23 22 21 21 23
21 17 15 13 10 8 8 8 9 7 6 3 2 2 1 6 2 5 3 5 6 4 5 3 1 6 4 3 4 4 3 3 2 3 2 2 0 6 13 14 14 14 15 16 15 17 18 19 21 22 22 22 22 23
20 17 15 11 9 9 8 10 8 5 2 4 6 4 3 7 4 4 3 3 5 2 4 5 5 3 4 3 2 5 2 2 1 7 2 1 1 10 14 15 15 15 15 16 16 17 19 19 19 18 19 20 21 20
20 17 13 12 11 9 8 7 8 13 7 4 4 4 5 6 8 4 4 3 4 3 3 5 8 3 4 6 2 3 2 2 5 3 1 1 6 12 14 14 15 14 15 16 17 17 18 18 19 18 19 20 21 20
19 16 13 11 10 8 7 7 9 7 5 3 3 4 5 3 3 2 2 0 2 3 7 5 3 3 3 3 2 2 2 2 3 3 3 3 12 12 13 12 14 16 16 16 17 18 18 19 19 18 19 19 20 21
19 16 12 10 8 7 8 9 8 5 4 4 4 4 3 0 1 1 2 3 1 2 4 1 2 3 3 1 3 2 3 3 1 2 4 9 11 12 13 14 14 14 15 15 16 16 18 18 18 18 20 18 20 20
18 12 6 9 9 9 7 7 6 3 4 4 6 4 1 1 1 1 0 2 1 1 1 3 2 2 2 2 2 1 1 1 2 3 6 9 10 12 12 14 13 13 13 14 15 15 16 18 18 17 16 19 21 20
11 3 4 6 9 14 12 4 3 7 5 4 3 1 2 2 2 2 2 2 1 1 3 2 3 1 1 2 1 2 2 2 4 6 5 5 8 12 12 13 13 13 14 15 14 15 16 16 15 17 22 21 19 18
5 1 6 5 4 5 4 7 5 5 5 2 2 1 1 1 1 2 2 2 1 2 2 0 3 1 2 1 1 1 1 3 4 4 6 5 7 10 10 12 12 12 13 14 14 14 14 16 16 16 16 18 16 18
9 10 8 6 5 5 4 5 6 4 2 0 2 1 2 2 2 0 2 2 2 3 5 2 1 3 3 3 2 2 2 2 3 5 5 4 5 8 9 10 9 10 12 14 14 12 12 13 13 13 13 14 14 14
17 12 9 13 4 4 4 4 4 5 2 1 0 1 2 0 2 2 3 3 2 1 1 3 4 3 3 1 2 2 2 2 2 4 1 3 5 7 8 9 9 10 10 11 10 12 11 12 13 14 14 15 14 15
5 4 10 6 5 10 6 2 4 3 1 1 2 2 1 2 2 2 2 5 0 3 3 5 4 4 3 2 2 2 2 3 2 2 2 5 5 5 7 7 9 8 9 10 11 12 13 12 12 12 13 14 14 13
1 6 4 7 6 4 7 4 3 1 1 1 1 5 1 2 2 2 5 1 3 3 5 3 2 2 3 4 4 4 2 3 3 3 2 3 4 6 7 6 8 10 9 9 9 10 11 11 12 10 11 13 14 13
5 4 5 7 4 6 1 3 2 6 2 3 2 2 1 2 1 5 2 3 4 4 4 4 4 3 4 2 2 3 3 3 4 4 4 3 3 2 4 4 5 8 10 10 9 8 10 13 12 12 11 12 12 13
8 5 5 4 5 2 1 4 3 3 2 2 2 4 1 3 7 1 3 3 3 2 4 5 4 3 2 3 5 6 5 4 4 3 3 3 3 2 2 3 2 1 5 8 8 9 9 10 12 12 12 12 12 13
4 5 4 4 3 3 3 2 3 2 2 2 2 2 2 5 2 2 2 3 3 4 5 5 6 7 7 6 4 4 3 4 3 4 3 4 2 2 2 2 2 1 4 10 11 11 11 11 10 11 12 11 11 15
5 3 2 2 1 2 2 1 1 1 2 3 2 2 2 2 2 4 3 3 3 3 4 8 7 7 9 10 8 5 4 5 4 3 2 4 4 2 2 3 5 3 3 6 8 11 12 12 11 12 12 12 13 13
3 2 2 0 4 4 2 2 2 1 2 2 2 1 1 2 3 4 3 4 3 3 3 3 6 9 8 5 3 3 3 5 4 2 1 2 4 6 5 4 4 5 9 7 9 9 11 12 12 10 9 9 7 9
3 3 3 4 2 1 1 1 2 3 3 3 3 2 3 4 4 2 3 1 3 1 1 2 2 3 4 3 2 3 3 1 1 3 4 4 4 4 5 7 7 8 8 9 11 10 10 10 8 7 6 8 9 7
3 2 4 2 1 2 5 6 4 4 3 6 3 3 5 5 3 2 1 1 2 2 5 6 5 3 3 2 2 2 3 4 2 3 4 4 2 1 2 3 5 6 6 8 11 9 10 1 2 2 4 5 6 7
3 1 3 2 3 5 3 5 2 1 2 3 3 5 5 5 4 2 2 2 4 6 4 3 2 3 4 3 3 4 5 6 6 6 4 3 1 1 3 5 6 6 5 6 7 7 5 5 4 4 5 6 8 9
2 2 2 2 4 2 1 4 4 3 2 3 2 6 7 8 6 2 3 3 2 2 2 3 3 3 4 4 4 3 3 3 5 6 6 6 6 7 8 7 7 6 5 4 3 3 3 3 4 5 6 7 8 8
2 3 3 2 3 2 4 2 2 2 2 2 3 2 3 3 5 3 4 5 3 2 3 3 2 1 3 6 5 4 4 1 3 5 6 7 8 9 9 9 8 5 4 3 1 1 1 1 2 3 4 5 6 7
2 1 0 3 3 2 3 5 3 4 3 3 3 2 2 3 6 3 1 6 4 2 3 3 3 2 1 0 1 2 2 3 5 7 7 8 10 10 8 7 4 3 3 3 2 2 2 1 2 2 3 4 6 7
Wind_Direction
148 158 165 156 155 140 115 94 82 73 57 46 40 44 42 60 94 75 10 14 70 63 301 198 159 164 131 122 319 308 9 6 336 21 15 343 310 317 313 315 343 360 334 343 330 317 337 20 353 7 334 317 314 316
154 161 161 159 154 135 122 107 97 77 58 41 31 28 29 22 48 87 25 32 28 138 243 298 286 287 215 217 223 319 278 288 298 358 342 322 284 270 312 308 12 22 38 308 338 294 343 354 331 341 333 322 321 319
155 153 163 158 152 141 128 116 96 74 55 32 19 20 15 6 42 88 93 7 66 58 10 57 47 5 57 65 195 359 271 251 242 187 227 255 262 168 296 1 70 358 15 331 338 23 351 324 345 334 333 323 319 314
151 158 157 157 145 140 125 111 91 64 40 17 5 360 354 11 81 83 83 349 83 84 93 239 349 49 337 27 194 235 264 82 107 135 231 244 257 142 26 84 86 323 320 313 272 283 334 292 331 330 321 317 316 314
151 158 156 152 144 134 125 112 86 54 21 4 354 345 350 78 102 90 83 56 84 72 306 310 323 4 328 349 343 349 265 236 177 143 178 258 310 356 83 86 70 6 328 325 288 314 307 297 307 314 319 317 316 316
158 157 155 151 142 134 124 108 74 27 17 359 353 354 36 137 126 84 69 25 34 76 100 93 320 330 342 353 354 14 22 86 101 139 121 61 47 76 71 44 184 350 328 311 294 307 306 293 302 318 318 314 318 325
157 158 161 146 139 133 121 100 53 33 8 4 25 76 93 102 83 78 91 344 26 80 81 26 4 352 335 327 354 351 352 33 74 99 63 76 21 61 76 11 326 333 330 319 321 327 317 318 315 317 319 320 321 321
158 160 143 140 134 126 114 81 49 16 13 36 106 106 110 102 83 47 15 17 64 90 63 63 334 0 6 353 341 357 338 351 36 47 69 71 35 53 64 338 328 329 323 311 329 320 297 302 312 319 324 328 330 335
147 143 143 135 127 116 95 63 29 22 62 107 116 115 79 45 61 23 8 56 53 78 95 69 8 326 357 355 331 334 352 25 336 59 63 82 44 51 336 329 328 332 331 319 323 321 328 328 328 331 332 333 336 337
144 141 137 126 119 103 78 51 27 71 104 105 67 94 75 37 317 11 9 32 30 359 32 88 341 313 355 332 317 354 8 36 46 30 70 66 87 114 4 330 321 324 327 328 334 339 337 335 333 332 335 334 335 336
140 137 130 122 110 94 77 41 30 112 100 59 80 90 231 348 76 41 58 42 348 54 12 352 270 323 350 323 316 26 332 355 28 5 47 78 85 350 341 335 334 329 329 327 325 322 327 326 329 333 335 337 339 337
135 130 124 116 106 95 61 36 26 70 80 120 115 85 51 35 60 72 31 335 39 21 340 343 325 259 305 347 320 346 341 12 332 342 70 40 39 350 339 336 336 336 334 335 337 335 334 335 335 337 337 339 340 337
129 124 117 107 100 74 46 33 79 111 110 59 60 68 19 348 52 63 23 359 356 339 334 330 320 344 340 31 42 352 344 302 314 44 22 236 344 340 338 334 334 336 341 341 342 344 342 342 344 346 341 342 341 345
124 118 108 99 81 55 44 73 109 84 71 68 52 52 41 42 68 116 132 174 295 296 329 313 294 19 352 2 346 338 343 359 29 27 337 319 337 334 334 338 337 338 340 340 344 342 345 347 345 346 349 346 347 353
118 108 101 86 65 58 84 77 80 58 69 77 52 59 64 284 256 273 269 310 277 319 314 278 55 8 1 17 18 328 357 21 34 327 302 332 334 340 338 340 337 337 338 341 342 345 345 346 349 347 348 348 354 355
118 92 64 88 66 67 90 69 41 72 63 68 63 90 157 84 32 40 330 301 304 288 146 59 41 21 30 353 355 27 64 12 299 281 300 322 333 339 339 338 333 333 336 340 344 346 344 351 351 338 342 3 355 353
85 79 87 104 96 68 48 77 63 51 78 65 82 30 73 119 230 260 231 286 189 313 17 47 357 303 298 328 313 193 252 281 285 301 306 323 329 331 334 337 342 345 347 351 349 351 350 345 352 3 5 353 349 350
82 98 69 88 130 70 44 36 81 70 70 78 91 147 324 200 236 239 235 196 27 69 120 1 130 265 251 247 282 238 273 273 275 283 312 314 332 337 340 340 343 348 349 354 354 346 356 357 6 0 349 349 353 360
115 74 63 67 127 93 73 35 32 91 98 167 281 264 261 264 230 158 121 120 102 100 124 102 246 233 243 221 252 268 260 277 295 313 302 300 322 339 339 347 347 355 358 358 353 350 359 353 359 356 350 357 358 352
89 66 65 54 79 85 75 47 23 96 115 140 3 295 287 172 322 60 77 56 80 84 225 220 230 231 221 235 207 238 256 222 302 343 325 329 342 353 0 0 357 350 355 352 352 5 6 3 5 5 360 4 358 352
74 23 34 57 49 60 78 33 60 76 112 117 335 3 323 14 51 54 44 352 80 212 247 227 243 258 245 248 222 220 236 207 232 224 281 308 336 0 359 356 357 2 6 356 359 357 4 357 346 357 355 359 355 345
73 38 71 32 74 58 80 15 80 61 42 71 38 3 9 354 359 20 329 309 237 244 211 213 248 248 241 264 250 223 238 239 237 258 276 316 334 351 353 351 356 2 1 357 355 350 347 341 352 4 356 358 356 351
79 50 57 35 85 42 48 353 57 8 15 342 343 327 335 328 289 333 266 242 265 245 229 232 256 249 257 269 227 231 229 250 265 271 277 275 282 293 340 348 357 359 354 349 343 340 344 352 349 2 354 358 1 4
43 53 50 48 37 93 329 37 29 26 29 355 352 290 317 315 335 39 261 261 248 253 218 229 221 249 266 255 257 259 248 224 262 280 255 256 292 307 325 322 326 357 357 329 334 339 343 345 356 355 358 360 8 12
83 16 45 58 25 71 53 21 2 2 297 323 295 293 341 345 318 290 257 260 243 248 237 226 228 230 244 261 269 264 211 212 239 282 279 213 240 316 330 337 330 255 1 358 355 345 343 343 349 358 3 360 12 13
84 350 65 121 56 65 155 312 280 303 308 288 263 287 352 353 303 260 245 232 237 226 222 215 223 246 256 241 256 264 264 196 181 252 279 210 217 239 281 337 353 341 303 336 332 334 335 339 343 354 2 4 6 7
107 100 57 95 95 120 107 84 81 192 251 246 270 318 357 292 261 252 254 225 225 220 218 220 221 235 258 283 257 227 167 169 203 245 237 260 237 217 221 246 305 308 313 328 327 323 322 326 334 347 353 357 356 353
110 159 140 157 115 71 153 184 202 222 232 196 150 244 233 221 247 227 219 231 218 210 215 232 245 249 260 262 256 175 179 183 298 309 283 254 233 232 234 240 258 294 332 325 316 315 312 313 320 336 347 352 348 340
100 101 126 137 144 200 216 206 225 213 180 171 205 242 250 232 254 237 224 211 161 204 265 272 267 254 256 252 252 230 196 199 223 279 291 295 310 272 215 244 287 311 323 328 336 332 313 298 269 329 343 341 332 337
137 121 115 142 206 225 225 192 229 288 251 249 275 293 276 268 262 200 200 235 257 267 265 252 260 230 253 255 282 282 233 218 216 220 240 257 256 266 293 295 300 311 317 326 339 346 356 22 29 35 29 23 16 16
96 117 110 198 253 251 279 313 298 273 284 272 274 249 268 305 310 253 230 216 195 171 212 258 259 236 232 245 251 282 307 227 224 231 240 256 273 281 287 282 283 291 295 309 333 351 359 29 37 35 30 20 11 10
73 155 182 238 259 320 5 358 313 304 300 289 255 267 290 292 273 264 195 156 164 224 233 204 228 293 244 249 254 255 283 253 242 261 269 271 274 272 270 275 284 271 267 275 281 318 340 9 19 24 17 3 355 353
84 101 96 298 298 297 353 343 342 309 259 262 254 244 245 247 258 291 271 217 222 228 220 222 239 261 286 286 257 278 308 289 290 289 289 277 267 276 266 255 254 236 230 232 236 239 276 289 320 340 339 337 339 342